GW3026 Weather Reports


time (UTC)temp
C
wind
direction
speed
KPH
gust
KPH
rain 1hr
cm
rain 24hr
cm
rain mn
cm
humidity
%
barometer
mb
20260505083605 1 4 0.0 4.8 0.00 0.53 0.00 95 1014.7
20260505083105 1 4 1.6 4.8 0.00 0.53 0.00 95 1014.9
20260505082605 1 4 1.6 4.8 0.00 0.53 0.00 95 1014.9
20260505082103 1 350 1.6 4.8 0.00 0.53 0.00 95 1014.8
20260505081603 1 332 1.6 4.8 0.00 0.53 0.00 95 1015.0
20260505080603 1 333 1.6 8.0 0.00 0.53 0.00 95 1015.0
20260505080103 1 334 1.6 8.0 0.00 0.53 0.00 94 1014.9
20260505075603 1 341 3.2 8.0 0.00 0.53 0.00 94 1015.0
20260505075103 1 341 3.2 8.0 0.00 0.53 0.00 94 1015.0
20260505074604 1 349 3.2 8.0 0.00 0.53 0.00 94 1014.9
20260505073103 1 338 3.2 8.0 0.00 0.53 0.00 94 1014.8
20260505071603 1 17 1.6 4.8 0.00 0.53 0.00 93 1014.9
20260505071104 1 17 3.2 4.8 0.00 0.53 0.00 92 1014.9
20260505070603 2 40 1.6 4.8 0.00 0.53 0.00 92 1014.9
20260505070104 2 40 1.6 4.8 0.00 0.53 0.00 91 1014.7
20260505065604 2 40 1.6 4.8 0.00 0.53 0.00 90 1015.4
20260505065103 2 41 1.6 4.8 0.00 0.53 0.00 89 1015.4
20260505064103 2 36 0.0 8.0 0.00 0.53 0.00 90 1015.4
20260505063603 2 36 1.6 8.0 0.00 0.53 0.00 91 1015.3
20260505063103 2 34 3.2 8.0 0.00 0.53 0.00 92 1015.3
20260505062103 2 320 3.2 16.1 0.00 0.53 0.00 92 1015.2
20260505061603 2 310 1.6 19.3 0.00 0.53 0.00 91 1015.1
20260505061104 2 267 6.4 19.3 0.00 0.53 0.00 91 1015.2
20260505060603 2 239 9.7 19.3 0.00 0.53 0.00 91 1015.1
20260505055103 2 246 3.2 12.9 0.00 0.53 0.53 91 1015.5
20260505054603 2 317 4.8 16.1 0.00 0.53 0.53 91 1015.6
20260505054103 2 292 3.2 16.1 0.00 0.53 0.53 91 1015.7
20260505053604 2 231 4.8 16.1 0.00 0.53 0.53 91 1015.6
20260505053104 2 240 4.8 12.9 0.00 0.53 0.53 91 1015.4
20260505052603 2 217 3.2 12.9 0.00 0.53 0.53 92 1015.4
20260505052103 2 239 4.8 12.9 0.00 0.53 0.53 92 1015.7
20260505050603 2 261 6.4 16.1 0.03 0.53 0.53 92 1015.6
20260505050103 1 243 8.0 14.5 0.03 0.53 0.53 92 1015.8
20260505041104 1 232 4.8 12.9 0.25 0.53 0.53 93 1015.6
20260505040603 1 269 1.6 4.8 0.25 0.51 0.51 92 1016.1
20260505040104 1 292 1.6 4.8 0.25 0.51 0.51 92 1016.2
20260505035603 1 340 1.6 4.8 0.23 0.48 0.48 92 1016.6
20260505035104 1 19 1.6 3.2 0.20 0.46 0.46 92 1016.5
20260505034603 1 19 1.6 4.8 0.18 0.43 0.43 92 1016.5
20260505034103 1 19 1.6 8.0 0.15 0.41 0.41 92 1016.6
20260505033603 2 19 3.2 8.0 0.13 0.38 0.38 92 1016.5
20260505033104 2 33 1.6 4.8 0.05 0.30 0.30 92 1016.5
20260505032103 2 352 3.2 8.0 0.03 0.28 0.28 92 1016.4
20260505031603 2 221 0.0 9.7 0.03 0.28 0.28 91 1016.1
20260505031104 2 217 3.2 9.7 0.03 0.28 0.28 91 1015.7
20260505030607 2 217 3.2 9.7 0.00 0.25 0.25 91 1015.4
20260505030105 2 185 3.2 4.8 0.00 0.25 0.25 90 1015.5
20260505025605 2 246 1.6 12.9 0.00 0.25 0.25 89 1016.0
20260505024604 3 262 3.2 16.1 0.00 0.25 0.25 88 1015.9
20260505024105 3 198 4.8 11.3 0.00 0.25 0.25 88 1016.0
20260505023605 3 263 1.6 14.5 0.00 0.25 0.25 89 1015.8
20260505022604 3 248 4.8 14.5 0.00 0.25 0.25 89 1015.6
20260505022104 3 232 4.8 14.5 0.00 0.25 0.25 89 1015.5
20260505021605 3 247 3.2 14.5 0.00 0.25 0.25 88 1015.3
20260505021104 3 220 4.8 19.3 0.00 0.25 0.25 88 1015.3
20260505020105 3 157 3.2 22.5 0.00 0.25 0.25 88 1014.9
20260505015605 3 257 9.7 22.5 0.00 0.25 0.25 88 1014.9
20260505015104 3 268 11.3 19.3 0.00 0.25 0.25 88 1014.8
20260505014604 3 248 11.3 20.9 0.03 0.25 0.25 88 1014.7
20260505014104 3 251 11.3 20.9 0.03 0.25 0.25 88 1015.0
20260505013605 3 245 9.7 19.3 0.03 0.25 0.25 87 1014.8
20260505012604 3 245 9.7 20.9 0.03 0.25 0.25 86 1014.9
20260505011604 3 248 11.3 19.3 0.03 0.25 0.25 87 1015.4
20260505010604 3 226 9.7 16.1 0.05 0.25 0.25 88 1015.0
20260505010105 4 224 4.8 11.3 0.08 0.25 0.25 90 1015.5
20260505005604 4 162 3.2 4.8 0.08 0.25 0.25 89 1015.3
20260505004605 3 172 3.2 12.9 0.08 0.23 0.23 89 1015.1
20260505004105 3 172 3.2 12.9 0.08 0.23 0.23 90 1015.1
20260505003604 3 192 6.4 12.9 0.08 0.23 0.23 89 1015.1
20260505003105 3 208 6.4 11.3 0.08 0.23 0.23 89 1015.1
20260505002604 3 236 4.8 11.3 0.08 0.23 0.23 89 1015.1
20260504235605 3 353 8.0 19.3 0.13 0.18 0.18 88 1016.0
20260504235105 3 347 9.7 19.3 0.10 0.15 0.15 87 1016.1
20260504234605 3 341 9.7 19.3 0.10 0.15 0.15 87 1015.7
20260504234104 3 334 8.0 19.3 0.10 0.15 0.15 86 1015.7
20260504233604 3 345 8.0 19.3 0.13 0.15 0.15 87 1015.4
20260504233104 3 343 8.0 14.5 0.13 0.15 0.15 87 1015.3
20260504232605 3 342 4.8 12.9 0.15 0.15 0.15 88 1015.1
20260504232105 3 333 4.8 12.9 0.15 0.15 0.15 87 1015.1
20260504231605 3 340 3.2 8.0 0.13 0.13 0.13 85 1014.9
20260504231105 3 333 3.2 8.0 0.10 0.10 0.10 84 1014.8
20260504230605 4 356 3.2 8.0 0.08 0.08 0.08 81 1014.9
20260504230105 4 1 1.6 4.8 0.05 0.05 0.05 82 1014.7
20260504225605 5 4 1.6 9.7 0.05 0.05 0.05 80 1015.1
20260504225104 5 126 3.2 9.7 0.05 0.05 0.05 78 1014.9
20260504224105 5 75 1.6 12.9 0.05 0.05 0.05 75 1014.9
20260504223604 5 90 4.8 12.9 0.03 0.03 0.03 72 1014.9
20260504223105 6 120 3.2 12.9 0.03 0.03 0.03 68 1014.7
20260504222105 8 51 3.2 12.9 0.00 0.00 0.00 60 1014.8
20260504221605 10 9 4.8 12.9 0.00 0.00 0.00 52 1014.8
20260504220605 10 131 6.4 12.9 0.00 0.00 0.00 45 1014.3
20260504220105 10 109 3.2 12.9 0.00 0.00 0.00 46 1014.2
20260504215605 11 114 4.8 12.9 0.00 0.00 0.00 45 1014.2
20260504215105 11 130 8.0 14.5 0.00 0.00 0.00 45 1014.1
20260504214604 11 139 8.0 14.5 0.00 0.00 0.00 44 1014.1
20260504214104 11 134 6.4 12.9 0.00 0.00 0.00 43 1014.3
20260504213105 11 165 4.8 11.3 0.00 0.00 0.00 42 1014.3
20260504212605 11 171 4.8 11.3 0.00 0.00 0.00 42 1014.3
20260504212105 11 53 4.8 8.0 0.00 0.00 0.00 42 1014.3
20260504205605 12 44 3.2 12.9 0.00 0.00 0.00 43 1014.7
20260504205106 12 236 3.2 12.9 0.00 0.00 0.00 41 1014.7
20260504204105 12 47 8.0 11.3 0.00 0.00 0.00 43 1015.1
20260504203605 12 133 4.8 11.3 0.00 0.00 0.00 45 1015.3
20260504203105 12 93 4.8 16.1 0.00 0.00 0.00 45 1015.3
20260504202605 12 92 4.8 19.3 0.00 0.00 0.00 45 1015.5
20260504202105 12 112 4.8 19.3 0.00 0.00 0.00 45 1015.6
20260504201604 11 61 4.8 14.5 0.00 0.00 0.00 47 1015.7
20260504201105 11 160 3.2 11.3 0.00 0.00 0.00 46 1015.1
20260504200605 11 133 3.2 19.3 0.00 0.00 0.00 47 1015.0
20260504200105 10 347 4.8 19.3 0.00 0.00 0.00 48 1015.0
20260504195605 10 346 8.0 16.1 0.00 0.00 0.00 47 1015.7
20260504195105 10 83 3.2 16.1 0.00 0.00 0.00 48 1015.5
20260504194605 10 39 4.8 16.1 0.00 0.00 0.00 48 1015.5
20260504194105 10 15 6.4 12.9 0.00 0.00 0.00 46 1015.6
20260504193605 10 5 4.8 9.7 0.00 0.00 0.00 46 1015.6
20260504193105 10 28 3.2 14.5 0.00 0.00 0.00 47 1015.5
20260504192605 10 50 3.2 16.1 0.00 0.00 0.00 45 1015.6
20260504192106 10 90 3.2 16.1 0.00 0.00 0.00 46 1015.6
20260504191605 10 88 3.2 16.1 0.00 0.00 0.00 46 1015.5
20260504191105 10 132 3.2 16.1 0.00 0.00 0.00 46 1015.5
20260504190605 10 129 3.2 16.1 0.00 0.00 0.00 46 1015.5
20260504185605 10 120 4.8 19.3 0.00 0.00 0.00 43 1015.7
20260504185106 11 257 6.4 19.3 0.00 0.00 0.00 41 1015.5
20260504184605 11 340 4.8 19.3 0.00 0.00 0.00 40 1015.5
20260504184105 11 353 8.0 24.1 0.00 0.00 0.00 40 1015.6
20260504183605 12 133 14.5 24.1 0.00 0.00 0.00 39 1015.5
20260504183106 12 62 6.4 16.1 0.00 0.00 0.00 40 1015.6
20260504182605 11 288 4.8 19.3 0.00 0.00 0.00 38 1015.6
20260504181605 10 346 4.8 38.6 0.00 0.00 0.00 37 1015.6
20260504181106 10 216 16.1 38.6 0.00 0.00 0.00 37 1015.6
20260504180605 10 244 9.7 25.7 0.00 0.00 0.00 39 1015.6
20260504175606 10 217 16.1 29.0 0.00 0.00 0.00 37 1015.7
20260504175105 11 241 16.1 29.0 0.00 0.00 0.00 36 1015.7
20260504174605 11 246 8.0 14.5 0.00 0.00 0.00 32 1015.5
20260504173105 11 348 8.0 33.8 0.00 0.00 0.00 33 1015.8
20260504172601 11 334 20.9 33.8 0.00 0.00 0.00 33 1015.7
20260504172101 11 216 6.4 27.4 0.00 0.00 0.00 31 1015.7
20260504171601 11 343 16.1 27.4 0.00 0.00 0.00 30 1015.8
20260504171101 12 257 4.8 20.9 0.00 0.00 0.00 32 1015.8
20260504170602 12 39 6.4 20.9 0.00 0.00 0.00 32 1015.8
20260504151101 8 273 14.5 27.4 0.00 0.00 0.00 41 1017.1
20260504141102 8 311 3.2 12.9 0.00 0.00 0.00 37 1017.2
20260504140601 8 272 4.8 19.3 0.00 0.00 0.00 37 1017.2
20260504130602 8 292 12.9 24.1 0.00 0.00 0.00 35 1017.2
20260504130103 8 310 11.3 24.1 0.00 0.00 0.00 35 1017.2
20260504100603 7 301 8.0 16.1 0.00 0.00 0.00 33 1016.8